Location: Moena
(46.3667°N, 11.6500°E)
Time: 15:39:14
(UTC+00:00)

Cosmos 1959 Rocket - Pass Details

Date: 03 March 2021
Orbit: 948 x 996 km, 83.0° (Epoch: 17 April)

Event Time Altitude Azimuth Distance (km) Brightness Sun altitude
Rises 19:09:48 0° 187° (S) 3,608 7.4 -22.6°
Reaches altitude 10° 19:12:17 10° 187° (S) 2,665 6.7 -23.0°
Maximum altitude 19:18:23 88° 277° (W) 956 4.4 -24.0°
Drops below altitude 10° 19:24:32 10° 8° (N) 2,689 6.9 -25.0°
Sets 19:27:03 0° 9° (N) 3,643 7.6 -25.4°
